Regional Weather Roundup
Issued by NWS

Home | Current Version | Previous Version | Graphics & Text | Print | Product List | Glossary On
Versions: 1 2 3 4 5 6 7 8 9 10 11 12 13 14 15 16 17 18 19 20 21 22 23 24 25 26 27 28 29 30 31 32 33 34 35 36 37 38 39 40 41 42 43 44 45 46 47 48 49 50
643
ASUS43 KDTX 021310
RWRMI
MICHIGAN HOURLY REGIONAL WEATHER ROUNDUP
NATIONAL WEATHER SERVICE DETROIT/PONTIAC MI
800 AM EST FRI DEC 02 2016

NOTE: "FAIR" INDICATES FEW OR NO CLOUDS BELOW 12,000 FEET WITH NO
SIGNIFICANT WEATHER AND/OR OBSTRUCTION TO VISIBILITY.

MIZ047>049-052>055-059>063-066>070-074>076-081>083-021400-
SOUTHEAST LOWER MICHIGAN

CITY           SKY/WX    TMP DP  RH WIND       PRES   REMARKS
ADRIAN         CLOUDY    37  33  85 W9        30.03R WCI  30
ALMA           CLOUDY    35  32  90 W12       30.00R WCI  26
ANN ARBOR      CLOUDY    36  35  96 SW9       30.00R WCI  29
BAD AXE        CLOUDY    35  25  67 W14G20    29.95R WCI  25
CARO           CLOUDY    35  30  82 W7        29.97R WCI  29
DETROIT CITY   CLOUDY    38  35  89 W8        29.99R WCI  32
DETROIT        CLOUDY    38  35  89 W9        30.01R WCI  31
FLINT          CLOUDY    35  31  85 NW10      29.99R WCI  27
GROSSE ILE     CLOUDY    37  34  89 W8        30.00R WCI  31
HILLSDALE      CLOUDY    34  32  93 W10       30.01R WCI  26
HOWELL         CLOUDY    37  34  90 W7        29.99R WCI  31

CITY           SKY/WX    TMP DP  RH WIND       PRES   REMARKS
JACKSON        MIX PCPN  34  34 100 NW9       30.01R WCI  27
LAMBERTVILLE   CLOUDY    38  32  80 SW8       30.03S WCI  32
LANSING        CLOUDY    37  30  75 W8        30.01R WCI  31
LAPEER         NOT AVBL
MASON          CLOUDY    36  35  94 W3        30.00S
MONROE         CLOUDY    37  34  88 W10       30.01S WCI  30
MT. CLEMENS    CLOUDY    39  34  83 W8        29.96R WCI  34
PONTIAC        CLOUDY    36  32  85 W10       29.96R WCI  28
PORT HOPE        N/A     37  26  64 W12G18    29.91R WCI  29
PORT HURON     CLOUDY    36  34  93 CALM      29.97R
TRI CITIES     CLOUDY    35  30  82 W8        29.99R WCI  29
MIDLAND        CLOUDY    36  27  71 W5        29.98R WCI  32
TROY           CLOUDY    38  32  81 W9        30.00R WCI  31
SAGINAW HB     CLOUDY    36  30  80 W7        29.98R WCI  30
$$
MIZ043>046-050>051-056>058-064>065-071>073-077>080-021400-
SOUTHWEST LOWER MICHIGAN

CITY           SKY/WX    TMP DP  RH WIND       PRES   REMARKS
BATTLE CREEK   LGT RAIN  36  35  96 W7        30.03R WCI  30
BENTON HARBOR  CLOUDY    40  29  64 W13G21    30.06R WCI  32
BIG RAPIDS     CLOUDY    34  30  86 NW7       29.99R WCI  28
COLDWATER      CLOUDY    36  32  85 W12       30.04R WCI  28
FREMONT        CLOUDY    35  24  64 W9        30.02R WCI  27
HOLLAND        CLOUDY    39  30  70 NW14      30.04R WCI  31
GRAND RAPIDS   CLOUDY    37  26  64 NW9       30.02R WCI  30
IONIA          CLOUDY    36  29  76 W8        30.01R WCI  29
KALAMAZOO      LGT RAIN  37  32  82 W9        30.04R WCI  30
LUDINGTON      CLOUDY    35  26  69 NW7       30.03R WCI  29
MARSHALL       CLOUDY    35  35  98 W7        30.02R WCI  29
MOUNT PLEASANT CLOUDY    35  29  81 W9        29.98R WCI  27
MUSKEGON       CLOUDY    38  27  64 NW9       30.04R WCI  31
SOUTH HAVEN    CLOUDY    41  33  74 W13G18    30.04R
$$
MIZ016>042-021400-
NORTHERN LOWER MICHIGAN

CITY           SKY/WX    TMP DP  RH WIND       PRES   REMARKS
ALPENA         CLOUDY    36  29  75 W12G17    29.88R WCI  28
BEAVER ISLAND  CLOUDY    34  31  88 W13G21    29.95R WCI  25
BELLAIRE       CLOUDY    35  31  85 NW6       29.96R WCI  30
CADILLAC       CLOUDY    31  28  89 W5        29.96R WCI  26
CHARLEVOIX     CLOUDY    35  32  87 W22       29.97R WCI  24
FRANKFORT      CLOUDY    35  29  79 W9        30.01R WCI  27
GAYLORD        LGT SNOW  32  28  85 W12G20    29.90R FOG     WCI  23
GRAYLING       FLURRIES  32  29  90 W9        29.94R WCI  24
HARBOR SPRINGS LGT SNOW  33  32  94 W10G16    29.92S WCI  25
HOUGHTON LAKE  CLOUDY    32  27  81 W12       29.95R WCI  23
MANISTEE       MIX PCPN  35  26  69 NW12      30.02R WCI  27
OSCODA         PTCLDY    34  28  77 MISG      29.90S
PELLSTON       FLURRIES  35  30  82 NW16      29.91R WCI  25
ROGERS CITY    LGT SNOW  35  32  90 W8G16     29.88R WCI  28
TRAVERSE CITY  CLOUDY    35  28  75 W12       29.98R WCI  27
$$
MIZ007>008-015-021400-
EASTERN UPPER MICHIGAN

CITY           SKY/WX    TMP DP  RH WIND       PRES   REMARKS
KINROSS        LGT SNOW N/A N/A N/A W9        29.87R
MACKINAC ISLAN CLOUDY    34  33  95 W15G21    29.89R WCI  24
NEWBERRY       CLOUDY    33  32  96 NW9G16    29.90R WCI  25
S. S. MARIE    LGT RAIN  36  33  89 NW10      29.85R WCI  28
MUNISING         N/A     36  34  92 NW16G25   29.96R WCI  26
$$
MIZ004>006-011>014-085-021400-
CENTRAL UPPER MICHIGAN

CITY           SKY/WX    TMP DP  RH WIND       PRES   REMARKS
MANISTIQUE     CLOUDY    32  28  87 NW12G17   29.95R WCI  23
ESCANABA       CLOUDY    31  26  82 W8        30.01R WCI  23
MENOMINEE      CLOUDY    31  24  75 NW5       30.05R WCI  26
SAWYER-GWINN   CLOUDY    30  27  86 NW7       29.98R WCI  23
$$
MIZ001>003-009>011-084-021400-
WESTERN UPPER MICHIGAN

CITY           SKY/WX    TMP DP  RH WIND       PRES   REMARKS
IRON MOUNTAIN  CLOUDY    29  23  78 NW12      30.00R WCI  19
HOUGHTON       LGT SNOW  31  27  85 NW12      30.02R FOG     WCI  22
COPPER HARBOR    N/A     34  32  92 N20       30.00R WCI  23
IRONWOOD       CLOUDY    28  25  88 W8        30.08R WCI  20
$$

ABBREVIATIONS USED IN REMARKS
   TC - TEMPERATURE IN CELSIUS
  WCI - WIND CHILL INDEX
   HX - HEAT INDEX
  VSB - VISIBILITY





USA.gov is the U.S. government's official web portal to all federal, state and local government web resources and services.